Location: Unspecified
(0.0000°N, 0.0000°E)
Time: 15:23:49
(UTC+00:00)

A-11 Canister half - Pass Details

Date: 25 May 2026
Orbit: 1524 x 1684 km, 47.3° (Epoch: 7 June)

Event Time Altitude Azimuth Distance (km) Brightness Sun altitude
Rises 22:30:45 0° 326° (NNW) 4,870 12.1 -60.2°
Reaches altitude 10° 22:33:54 10° 329° (NNW) 3,900 11.4 -60.7°
Enters shadow 22:35:35 17° 331° (NNW) 3,398 11.0 -61.0°
Maximum altitude 22:43:53 68° 51° (NE) 1,783 - -62.4°
Drops below altitude 10° 22:53:57 10° 132° (SE) 3,941 - -63.9°
Sets 22:57:08 0° 134° (SE) 4,924 - -64.3°
